Regional Weather Roundup
Issued by NWS Sterling, VA

Home | Current Version | Previous Version | Graphics & Text | Print | Product List | Glossary On
Versions: 1 2 3 4 5 6 7 8 9 10 11 12 13 14 15 16 17 18 19 20 21 22 23 24 25 26 27 28 29 30 31 32 33 34 35 36 37 38 39 40 41 42 43 44 45 46 47 48 49 50
000
ASUS41 KLWX 020910
RWRLWX

REGIONAL WEATHER ROUNDUP
NATIONAL WEATHER SERVICE BALTIMORE MD/WASHINGTON DC
500 AM EDT TUE SEP 02 2014

Note: "FAIR" indicates few or no clouds below 12,000 feet
with no significant weather and/or obstructions to visibility.
 TC=TEMPERATURE CELSIUS

 * =Non NWS site. Station does not report precipitation (e.g. rain,
    snow, etc.), thunder, or fog.

DCZ001-MDZ009-015-VAZ040>042-051-053>054-021000-
WASHINGTON METRO

CITY           SKY/WX    TMP DP  RH WIND       PRES   REMARKS
WASHINGTON NAT PTCLDY    78  71  79 S6        29.95F
DULLES         PTCLDY    72  70  93 S3        29.96S
ANDREWS AFB    PTCLDY    75  72  88 SW6       29.95F
QUANTICO       CLEAR     75  71  87 CALM      29.96S
COLLEGE PARK*  PTCLDY    73  73 100 CALM      29.94F
LEESBURG*      CLEAR     72  72 100 SW5       29.96F
MANASSAS*      CLEAR     72  72 100 CALM      29.96S
GAITHERSBURG*    N/A     70  68  94 CALM      30.00S VSB 1/2

$$

MDZ006>007-011-014-021000-
BALTIMORE METRO

CITY           SKY/WX    TMP DP  RH WIND       PRES   REMARKS
BWI AIRPORT    PTCLDY    73  72  96 W3        29.93F
MD SCIENCE CTR   N/A     77  73  87 MISG      29.94S
MARTIN STATE   CLEAR     73  73 100 CALM      29.94F
ANNAPOLIS      PTCLDY    77  72  84 CALM      29.93F
FORT MEADE*    CLEAR     70  68  94 CALM      29.96F

$$

MDZ012-015-019>023-021000-
MARYLAND EASTERN SHORE

CITY           SKY/WX    TMP DP  RH WIND       PRES   REMARKS
OCEAN CITY     CLEAR     78  72  81 W8        29.95S
SALISBURY      CLEAR     77  72  84 SW3       29.95F
BAY BRIDGE AP*   N/A     77  73  88 SW3       29.94S
EASTON*        CLEAR     76  76 100 CALM      29.98S

$$

MDZ017>025-021000-
SOUTHERN MARYLAND

CITY           SKY/WX    TMP DP  RH WIND       PRES   REMARKS
PATUXENT RIVER PTCLDY    73  70  90 CALM      29.95F
ST INIGOES     CLEAR     74  69  85 CALM      29.95F
LEONARDTOWN*   CLEAR     73  68  83 SW3       29.97F

$$

MDZ003>005-021000-
NORTH CENTRAL MARYLAND

CITY           SKY/WX    TMP DP  RH WIND       PRES   REMARKS
FREDERICK*     CLEAR    N/A N/A N/A CALM      29.98S HAZE
HAGERSTOWN APT PTCLDY    74  67  78 S6        29.95F
WESTMINSTER*   CLEAR     73  70  88 SW5       29.96F

$$

MDZ501>502-021000-
WESTERN MARYLAND

CITY           SKY/WX    TMP DP  RH WIND       PRES   REMARKS
OAKLAND*       CLOUDY    68 N/A N/A W10G18    30.09S
CUMBERLAND*    CLEAR     72  64  78 CALM      30.00F

$$

VAZ025>031-021000-
SHENANDOAH VALLEY

CITY           SKY/WX    TMP DP  RH WIND       PRES   REMARKS
WINCHESTER*    CLEAR     75  63  64 SW6       29.97S
STAUNTON*        N/A     66  63  88 CALM      30.05S

$$

WVZ021-048>050-054>055-021000-
EASTERN WEST VIRGINIA PANHANDLE

CITY           SKY/WX    TMP DP  RH WIND       PRES   REMARKS
MARTINSBURG    CLOUDY    71  64  78 S5        29.96S
PETERSBURG*    NOT AVBL

$$

VAZ036>039-050-021000-
CENTRAL FOOTHILLS

CITY           SKY/WX    TMP DP  RH WIND       PRES   REMARKS
CHARLOTTESVILL CLEAR     73  66  78 S5        29.99S
ORANGE*        CLEAR     70  66  88 CALM      30.00R

$$

VAZ055>057-021000-
NORTH AND CENTRAL PIEDMONT

CITY           SKY/WX    TMP DP  RH WIND       PRES   REMARKS
FREDERICKSBRG* CLEAR     74  73  96 CALM      29.96S
STAFFORD*      CLEAR     70  70 100 CALM      30.00S

$$

NCZ024-NYZ072-PAZ021-071-VAZ022-071-021000-
OTHER REGIONAL OBSERVATIONS

CITY           SKY/WX    TMP DP  RH WIND       PRES   REMARKS
NEW YORK CITY  CLEAR     78  72  81 VRB3      29.92F
PHILADELPHIA   PTCLDY    77  72  84 SW3       29.91F
PITTSBURGH     MOCLDY    73  69  87 SW7       29.97R
ROANOKE        PTCLDY    74  65  73 CALM      30.08S
RICHMOND       MOCLDY    76  70  82 SW7       29.99S
RALEIGH        PTCLDY    74  69  85 SW3       30.05S

$$

ANZ530>537-021000-
MARINE OBSERVATIONS

STATION/POSITION TIME  TEMP    WIND        PRES
                       AIR SEA DIR/SP/G
                 (UTC) (F)     (DEG/KT/KT) (MB)
THOMAS PT LIGHT  0900   78 79  250/  7/  7 1014.7F
BALT KEY BRIDGE  0900          230/  5/  6 1013.4S
COVE POINT       0900   79     270/ 11/ 12 1013.8S
LEWISETTA        0900   77 81  240/  7/  8 1014.1R
SOLOMONS ISLAND  0900      81                N/A
PINEY POINT      0900          290/  6/  7   N/A

$$




USA.gov is the U.S. government's official web portal to all federal, state and local government web resources and services.